Change the Weather History Date:

Thursday, August 16, 2012

  Actual Average Record
Temperature  
Mean Temperature 63 °F 72 °F  
Max Temperature 77 °F 84 °F 106 °F (1937)
Min Temperature 48 °F 61 °F 48 °F (1897)
Degree Days  
Heating Degree Days 2 0  
Month to date heating degree days 2 0  
Since 1 June heating degree days 16 30  
Since 1 July heating degree days 2 3  
Cooling Degree Days 0 8  
Month to date cooling degree days 137 135  
Year to date cooling degree days 1049 680  
Since 1 June cooling degree days 884 616  
Growing Degree Days 17 (Base 50)    
Moisture  
Dew Point 50 °F    
Average Humidity 57    
Maximum Humidity 83    
Minimum Humidity 21    
Precipitation  
Precipitation 0.04 in 0.11 in 2.40 in (1912)
Month to date precipitation 1.15 1.65  
Year to date precipitation 18.58 18.96  
Snow  
Snow 0.00 in 0.00 in 0.00 in ()
Month to date snowfall 0.0 0.0  
Since 1 June snowfall 0.0 0.0  
Since 1 July snowfall 0.0 0.0  
Snow Depth 0.00 in    
Sea Level Pressure  
Sea Level Pressure 30.02 in    
Wind  
Wind Speed 12 mph (NNW)    
Max Wind Speed 26 mph    
Max Gust Speed 32 mph    
Visibility 10 miles    
Events Thunderstorm    
T = Trace of Precipitation, MM = Missing Value Source: NWS Daily Summary

Daily Weather History Graph

Daily Weather History Graph

Search for Another Location

Airport or City:

Trip Planner

Search our weather history database for the weather conditions in past years. The results will help you decide how hot, cold, wet, or windy it might be!

Date:

Astronomy

Aug. 16, 2012 Rise Set
Actual Time 6:34 AM CDT 8:24 PM CDT
Civil Twilight 6:04 AM CDT 8:54 PM CDT
Nautical Twilight 5:27 AM CDT 9:31 PM CDT
Astronomical Twilight 4:47 AM CDT 10:10 PM CDT
Moon 5:34 AM CDT (8/16) 7:33 PM CDT (8/16)
Length of Visible Light 14h 50m
Length of Day
13h 50m
Waning Crescent, 1% of the Moon is Illuminated
Aug 16
Waning Crescent
Aug 17
New
Aug 24
First Quarter
Aug 31
Full
Sep 8
Last Quarter

Hourly Weather History & Observations

Time (CDT) Temp. Dew Point Humidity Pressure Visibility Wind Dir Wind Speed Gust Speed Precip Events Conditions
12:37 AM 69.8 °F 59.0 °F 68% 29.87 in 10.0 mi NNW 21.9 mph 28.8 mph N/A   Mostly Cloudy
12:52 AM 70.0 °F 57.9 °F 65% 29.86 in 10.0 mi NNW 20.7 mph 27.6 mph N/A Thunderstorm Mostly Cloudy
1:40 AM 66.2 °F 59.0 °F 78% 29.90 in 10.0 mi NNW 13.8 mph 23.0 mph 0.04 in   Mostly Cloudy
1:52 AM 66.0 °F 59.0 °F 78% 29.87 in 10.0 mi NNW 13.8 mph - 0.04 in   Mostly Cloudy
2:52 AM 66.0 °F 57.9 °F 75% 29.90 in 10.0 mi NNW 17.3 mph 23.0 mph N/A   Mostly Cloudy
3:52 AM 64.9 °F 57.0 °F 75% 29.93 in 10.0 mi NNW 17.3 mph 24.2 mph N/A   Overcast
4:52 AM 63.0 °F 55.0 °F 75% 29.96 in 10.0 mi NNW 13.8 mph 21.9 mph N/A   Scattered Clouds
5:52 AM 61.0 °F 55.0 °F 81% 30.00 in 10.0 mi NNW 11.5 mph - N/A   Clear
6:52 AM 59.0 °F 54.0 °F 83% 30.02 in 10.0 mi NNW 10.4 mph - N/A   Clear
7:52 AM 60.1 °F 53.1 °F 78% 30.04 in 10.0 mi NNW 11.5 mph - N/A   Clear
8:52 AM 62.1 °F 52.0 °F 70% 30.06 in 10.0 mi NNW 13.8 mph 21.9 mph N/A   Scattered Clouds
9:52 AM 63.0 °F 50.0 °F 63% 30.07 in 10.0 mi North 15.0 mph - N/A   Scattered Clouds
10:22 AM 64.4 °F 50.0 °F 59% 30.10 in 10.0 mi NNW 13.8 mph 19.6 mph N/A   Mostly Cloudy
10:52 AM 66.0 °F 50.0 °F 56% 30.08 in 10.0 mi North 12.7 mph 21.9 mph N/A   Mostly Cloudy
11:52 AM 69.1 °F 48.9 °F 49% 30.09 in 10.0 mi North 15.0 mph 23.0 mph N/A   Partly Cloudy
12:52 PM 72.0 °F 46.0 °F 40% 30.08 in 10.0 mi NNW 16.1 mph 25.3 mph N/A   Clear
1:52 PM 73.9 °F 45.0 °F 35% 30.06 in 10.0 mi NNW 16.1 mph 23.0 mph N/A   Clear
2:52 PM 75.0 °F 44.1 °F 33% 30.05 in 10.0 mi NW 16.1 mph 28.8 mph N/A   Clear
3:52 PM 77.0 °F 45.0 °F 32% 30.04 in 10.0 mi North 15.0 mph 20.7 mph N/A   Clear
4:52 PM 75.9 °F 43.0 °F 31% 30.04 in 10.0 mi NNW 16.1 mph 24.2 mph N/A   Clear
5:52 PM 75.2 °F 42.8 °F 31% 30.04 in 10.0 mi North 12.7 mph - N/A   Clear
6:52 PM 75.0 °F 43.0 °F 32% 30.03 in 10.0 mi NNW 13.8 mph - N/A   Clear
7:52 PM 71.1 °F 44.1 °F 38% 30.04 in 10.0 mi NNW 10.4 mph - N/A   Clear
8:52 PM 66.9 °F 44.1 °F 44% 30.05 in 10.0 mi NNW 9.2 mph - N/A   Clear
9:52 PM 63.0 °F 45.0 °F 52% 30.09 in 10.0 mi North 5.8 mph - N/A   Clear
10:52 PM 57.9 °F 46.0 °F 65% 30.10 in 10.0 mi NNW 5.8 mph - N/A   Clear
11:52 PM 51.1 °F 46.0 °F 83% 30.12 in 10.0 mi Calm Calm - N/A   Clear